Fort Eustis, VA

10:03 PM EDT on August 18, 2017 (GMT -0400)
Felker Army Air Field

Weather History for KFAF - November, 2012

Change the Weather History Date:

Thursday, November 29, 2012

  Actual Average Record
Temperature  
Mean Temperature 40 °F -  
Max Temperature 50 °F 55 °F 73 °F (2001)
Min Temperature 29 °F 38 °F 27 °F (2013)
Degree Days  
Heating Degree Days 26    
Moisture  
Dew Point 30 °F    
Average Humidity 74    
Maximum Humidity 94    
Minimum Humidity 44    
Precipitation  
Precipitation 0.00 in - - ()
Sea Level Pressure  
Sea Level Pressure 30.42 in    
Wind  
Wind Speed 1 mph (SE)    
Max Wind Speed 8 mph    
Max Gust Speed -    
Visibility 10 miles    
Events      
Averages and records for this station are not official NWS values.
T = Trace of Precipitation, MM = Missing Value Source: NWS Daily Summary

Daily Weather History Graph

Daily Weather History Graph

Search for Another Location

Airport or City:

Trip Planner

Search our weather history database for the weather conditions in past years. The results will help you decide how hot, cold, wet, or windy it might be!

Date:

Astronomy

Nov. 29, 2012 Rise Set
Actual Time 6:59 AM EST 4:49 PM EST
Civil Twilight 6:31 AM EST 5:18 PM EST
Nautical Twilight 5:59 AM EST 5:50 PM EST
Astronomical Twilight 5:27 AM EST 6:21 PM EST
Moon 5:51 PM EST (11/29) 7:44 AM EST (11/29)
Length of Visible Light 10h 46m
Length of Day
9h 49m
Full, 99% of the Moon is Illuminated
Nov 29
Full
Dec 6
Last Quarter
Dec 13
New
Dec 20
First Quarter
Dec 28
Full

Hourly Weather History & Observations

Time (EST) Temp. Windchill Dew Point Humidity Pressure Visibility Wind Dir Wind Speed Gust Speed Precip Events Conditions
12:55 AM 31.6 °F - 29.7 °F 92% 30.39 in 7.0 mi Calm Calm - N/A   Clear
1:55 AM 32.4 °F - 30.4 °F 92% 30.39 in 10.0 mi Calm Calm - N/A   Clear
2:55 AM 31.5 °F - 29.3 °F 92% 30.41 in 10.0 mi Calm Calm - N/A   Clear
3:55 AM 31.6 °F - 29.1 °F 90% 30.41 in 10.0 mi Calm Calm - N/A   Clear
4:55 AM 30.6 °F - 28.4 °F 92% 30.41 in 10.0 mi Calm Calm - N/A   Clear
5:55 AM 30.4 °F - 28.9 °F 94% 30.42 in 10.0 mi Calm Calm - N/A   Clear
6:55 AM 29.1 °F - 27.3 °F 93% 30.45 in 10.0 mi Calm Calm - N/A   Clear
7:55 AM 32.0 °F - 28.8 °F 88% 30.46 in 10.0 mi Calm Calm - N/A   Clear
8:55 AM 40.8 °F - 31.5 °F 69% 30.47 in 10.0 mi Calm Calm - N/A   Clear
9:55 AM 45.3 °F 43.0 °F 27.5 °F 50% 30.48 in 10.0 mi East 4.6 mph - N/A   Clear
10:55 AM 47.7 °F - 26.4 °F 44% 30.48 in 10.0 mi ESE 4.6 mph - N/A   Clear
11:55 AM 48.9 °F - 27.9 °F 44% 30.46 in 10.0 mi Calm Calm - N/A   Clear
12:55 PM 49.6 °F - 32.0 °F 51% 30.44 in 10.0 mi South 6.9 mph - N/A   Clear
1:55 PM 50.2 °F - 30.7 °F 47% 30.41 in 9.0 mi ESE 8.1 mph - N/A   Clear
2:55 PM 50.0 °F - 31.6 °F 49% 30.39 in 10.0 mi Calm Calm - N/A   Clear
3:55 PM 49.5 °F - 31.1 °F 49% 30.38 in 10.0 mi SSE 4.6 mph - N/A   Clear
4:55 PM 45.5 °F - 31.5 °F 58% 30.38 in 10.0 mi Calm Calm - N/A   Clear
5:55 PM 41.5 °F 39.6 °F 31.5 °F 67% 30.40 in 10.0 mi ESE 3.5 mph - N/A   Clear
6:55 PM 39.4 °F - 31.6 °F 74% 30.40 in 10.0 mi Calm Calm - N/A   Clear
7:55 PM 37.2 °F - 31.5 °F 80% 30.40 in 10.0 mi Calm Calm - N/A   Clear
8:55 PM 36.1 °F 32.3 °F 32.4 °F 86% 30.41 in 10.0 mi South 4.6 mph - N/A   Clear
9:55 PM 35.2 °F - 32.7 °F 91% 30.41 in 10.0 mi Calm Calm - N/A   Clear
10:55 PM 35.1 °F - 33.3 °F 93% 30.40 in 10.0 mi Calm Calm - N/A   Clear
11:55 PM 35.1 °F - 31.8 °F 88% 30.39 in 10.0 mi Calm Calm - N/A   Clear